カタログに戻る

DELTA 1 DEB

運用中PO
NORAD 21352·DEBRIS·🇺🇸 United States

打ち上げ Jun 12, 1975 から Vandenberg Space Force Base

Loading…

次のパス (今後24時間)

TLE

最新Source: Space-Track

元期: Sep 14, 2026, 14:54 UTC

1 21352U 75052BW  26257.62110646  .00000308  00000-0  71719-3 0  9999
2 21352  99.5325 300.5314 0282004 356.5648 154.1771 13.18708160685872

AllMySatでDELTA 1 DEBをリアルタイム追跡

Download on the App Store